Location: Big Meadows
(38.5260°N, 78.4400°W)
Time: 08:00:45
(UTC-05:00)

Daily predictions for brighter satellites

Satellite Brightness Start Highest point End
(mag) Time Altitude Azimuth Time Altitude Azimuth Time Altitude Azimuth
Cosmos 468 Rocket 4.4 17:38:47 10° SSW 17:43:57 68° WNW 17:49:06 10° NNE
Cosmos 2360 Rocket 3.1 17:39:25 10° SW 17:44:52 51° WNW 17:50:22 10° NNE
Atlas Centaur 2 3.7 17:41:46 10° WSW 17:46:19 27° SSW 17:50:05 10° SE
Cosmos 1937 Rocket 3.5 17:42:45 10° NNW 17:47:57 77° ENE 17:53:10 10° SSE
Cosmos 1328 Rocket 4.0 17:44:01 10° N 17:48:14 42° E 17:52:27 10° SSE
CENTAUR R/B 2.6 17:42:30 10° SSW 17:48:28 87° SE 17:55:15 10° NNE
AQUARIUS 4.3 17:46:35 10° SSE 17:51:05 85° WSW 17:55:36 10° NNW
Cosmos 1515 Rocket 4.2 17:49:45 10° N 17:53:53 36° ENE 17:57:58 10° SE
Cosmos 2333 Rocket 2.9 17:50:00 10° SSE 17:55:03 35° ESE 18:00:08 10° NE
Cosmos 1634 Rocket 4.3 17:49:38 10° N 17:55:29 42° ENE 18:01:16 10° SSE
SKYMED 2 4.0 17:52:14 10° NNE 17:56:23 42° E 18:00:29 10° S
Cosmos 371 Rocket 3.7 17:55:25 10° S 17:59:54 41° ESE 18:04:24 10° NNE
Cosmos 2151 4.0 17:56:40 10° SE 18:00:08 26° E 18:03:38 10° NNE
CORIOLIS 4.4 18:00:26 10° S 18:05:46 74° WSW 18:11:08 10° NNW
Cosmos 1500 Rocket 3.7 18:03:11 10° S 18:07:22 52° E 18:11:35 10° NNE
Cosmos 1151 Rocket 3.6 18:04:04 10° NNE 18:07:57 33° ENE 18:11:49 10° SE
Lacrosse 5 4.0 18:08:03 10° WNW 18:11:30 18° NNW 18:14:58 10° NNE
CZ-2C R/B 3.7 18:07:19 10° S 18:12:10 46° W 18:16:54 10° NNW
Cosmos 1340 Rocket 4.2 18:09:45 10° SE 18:12:29 18° E 18:14:01 15° ENE
Cosmos 2219 Rocket 2.2 18:07:02 10° S 18:12:37 67° ESE 18:18:13 10° NNE
Cosmos 389 Rocket 3.6 18:09:54 10° NNW 18:13:23 48° W 18:16:48 10° S
Abrixas rocket 2.9 18:10:52 10° WNW 18:14:08 57° SW 18:17:24 10° SE
MSX 4.1 18:09:22 10° S 18:15:04 72° WSW 18:20:48 10° NNW
SMAP 4.3 18:10:57 10° S 18:15:25 46° W 18:19:55 10° NNW
Cosmos 2278 Rocket 2.8 18:12:26 10° N 18:17:36 34° ENE 18:22:42 10° SE
Cosmos 44 Rocket 3.4 18:13:11 10° SSW 18:18:17 65° ESE 18:23:07 11° NE
Cosmos 1908 4.3 18:18:52 10° NNW 18:22:37 48° W 18:26:21 10° SSW
SL-14 R/B 3.5 18:20:06 10° SSE 18:23:49 46° E 18:27:37 10° NNE
NOSS 0 Rocket 4.0 18:19:23 10° S 18:25:30 62° ESE 18:31:38 10° NNE
OAO 3 Rocket 4.3 18:21:05 10° W 18:25:40 40° SSW 18:30:10 10° SE
Cosmos 1763 Rocket 4.2 18:21:03 10° SSW 18:26:10 55° WNW 18:31:16 10° N
OTV 4 0.4 18:24:46 10° W 18:27:44 79° S 18:29:10 27° E
Cosmos 1844 3.7 18:22:24 10° NNW 18:28:10 73° ENE 18:33:56 10° SSE
Cosmos 1484 Rocket 3.2 18:25:56 10° S 18:29:46 65° W 18:33:43 10° NNW
Resurs 01 Rocket 3.1 18:31:09 18° NE 18:31:09 18° NE 18:33:13 10° NNE
COSMOS 2428 3.8 18:30:08 10° SW 18:35:33 44° WNW 18:41:01 10° N
Cosmos 372 Rocket 4.3 18:31:43 10° N 18:36:31 40° ENE 18:41:16 10° SE
Cosmos 1626 4.2 18:35:42 10° SE 18:36:26 13° SE 18:36:26 13° SE
Cosmos 2237 Rocket 2.1 18:36:09 10° SSW 18:41:43 69° ESE 18:46:42 13° NNE
COSMO-SKYMED 1 3.3 18:40:09 10° N 18:44:23 53° WNW 18:48:36 10° SSW
SL-16 R/B 3.0 18:40:51 10° SSE 18:45:42 30° ESE 18:46:58 27° E
Cosmos 2084 3.3 18:42:49 10° SW 18:46:44 70° NW 18:48:51 25° NNE
Lacrosse 5 rocket 2.7 18:44:56 10° NNW 18:47:13 20° NNE 18:47:13 20° NNE
Cosmos 304 Rocket 4.3 18:44:01 10° SSE 18:48:24 36° ESE 18:49:27 32° ENE
NOAA 12 4.0 18:43:39 10° SSE 18:48:51 76° ENE 18:54:06 10° N
Cosmos 2279 Rocket 3.9 18:42:57 10° N 18:49:08 67° E 18:55:19 10° SSE
Hubble Space Telescope 3.3 18:47:02 10° SW 18:49:22 15° SSW 18:51:43 10° SSE
Cosmos 540 Rocket 3.4 18:44:29 10° SSW 18:49:40 84° ESE 18:54:24 13° NNE
Cosmos 1300 2.7 18:46:16 10° N 18:50:07 81° W 18:53:56 10° S
USA 215 3.2 18:43:41 10° SE 18:50:15 84° NE 18:56:50 10° NW
Cosmos 2297 4.3 18:50:14 10° N 18:55:21 33° ENE 18:55:55 32° ENE
Cosmos 1726 2.7 18:54:20 10° NNW 18:58:03 59° W 19:01:46 10° S
Haruka 4.3 18:54:34 10° WSW 18:58:42 47° SSE 19:04:42 23° ESE
Meteor 1-11 4.2 18:55:39 10° S 19:01:18 87° W 19:07:04 10° N
Cosmos 1125 Rocket 3.5 18:56:30 10° NNW 19:01:43 81° WSW 19:06:54 10° SSE
Cosmos 1461 4.2 19:00:11 10° S 19:02:39 25° SE 19:02:39 25° SE
Cosmos 2180 Rocket 4.3 18:58:46 10° N 19:04:55 74° E 19:11:07 10° SSE
Nadezhda 4 Rocket 4.0 19:02:18 10° SSE 19:08:18 53° E 19:13:55 12° NNE
Spot 2 Rocket 3.5 19:06:12 10° SSE 19:11:07 54° ENE 19:16:02 10° N
Cosmos 1538 Rocket 4.2 19:11:27 10° S 19:16:07 48° ESE 19:16:07 48° ESE
Cosmos 2058 3.7 19:12:46 10° SSW 19:16:45 49° W 19:20:15 13° N
SJ-6B 3.3 19:13:04 10° S 19:17:02 61° W 19:21:07 10° NNW
FengYun 1-2 T 4.1 19:11:38 10° SSE 19:17:10 71° ENE 19:22:42 10° N
Cosmos 1092 Rocket 4.1 19:18:30 10° SSE 19:24:32 51° E 19:24:32 51° E
USA 229 DEB 4.5 19:21:47 10° S 19:26:32 32° SE 19:26:32 32° SE
USA 229 4.5 19:21:55 10° S 19:26:34 32° SE 19:26:34 32° SE
ALOS 2.1 19:25:39 10° SSE 19:30:19 88° W 19:35:01 10° NNW
Aureole 2 Rocket 3.9 19:32:41 10° SW 19:35:45 40° W 19:35:45 40° W
Cosmos 44 4.4 19:31:18 10° SW 19:36:18 43° NW 19:38:08 31° N
Cosmos 1703 4.2 19:33:10 10° SSW 19:36:40 47° W 19:36:40 47° W
Cosmos 1805 Rocket 4.3 19:32:55 10° SSW 19:37:15 52° W 19:38:40 37° NNW
Cosmos 2333 Rocket 3.8 19:34:21 10° WSW 19:39:18 31° WNW 19:43:40 13° N
FENGYUN 3A 3.7 19:37:28 10° S 19:42:48 73° WSW 19:48:11 10° NNW
Cosmos 2278 Rocket 3.9 19:56:36 10° NW 20:01:34 32° WSW 20:06:29 10° SSW
Resurs 01 Rocket 3.8 20:08:42 20° NW 20:08:42 20° NW 20:10:19 10° NNW
H-2A ROCKET BODY 3.8 20:14:47 10° WSW 20:25:47 34° SSW 20:25:47 34° SSW
SL-16 R/B 3.6 20:24:32 10° SW 20:28:55 34° WNW 20:28:55 34° WNW
